W1LH-4 Weather Reports


Display with metric or nautical units.
time (UTC)temp
F
wind
direction
speed
MPH
gust
MPH
rain 1hr
in
rain 24hr
in
rain mn
in
humidity
%
barometer
mb
20260505053350 44 219 1.0 3.0 0.00 0.00 0.00 28 1007.9
20260505051911 45 213 4.0 6.0 0.00 0.00 0.00 33 1008.2
20260505050411 45 227 3.0 10.0 0.00 0.00 0.00 30 1008.2
20260505040341 47 238 0.0 3.0 0.00 0.00 0.00 64 1008.5
20260505034846 47 238 0.0 3.0 0.00 0.00 0.00 64 1008.3
20260505033347 47 239 2.0 5.0 0.00 0.00 0.00 67 1008.1
20260505031850 48 229 2.0 4.0 0.00 0.00 0.00 67 1008.1
20260505030357 48 229 2.0 4.0 0.00 0.00 0.00 68 1008.4
20260505024838 49 227 3.0 7.0 0.00 0.00 0.00 71 1008.7
20260505023340 49 223 2.0 4.0 0.00 0.00 0.00 72 1008.1
20260505021845 50 217 4.0 8.0 0.00 0.00 0.00 72 1008.4
20260505020349 49 240 4.0 7.0 0.00 0.01 0.00 72 1008.1
20260505014910 50 238 3.0 7.0 0.00 0.01 0.00 75 1007.9
20260505013352 53 342 2.0 4.0 0.00 0.01 0.00 74 1007.8
20260505011842 52 342 2.0 4.0 0.00 0.01 0.00 74 1007.7
20260505010405 52 342 3.0 4.0 0.00 0.02 0.00 75 1007.5
20260505004845 52 342 1.0 4.0 0.00 0.02 0.00 75 1007.5
20260505003351 52 342 1.0 4.0 0.00 0.02 0.00 75 1007.4
20260505001853 52 344 2.0 4.0 0.00 0.02 0.00 74 1006.8
20260505000354 52 345 2.0 3.0 0.00 0.02 0.00 74 1006.6
20260504234858 53 345 1.0 4.0 0.00 0.02 0.00 73 1006.3
20260504233344 53 344 2.0 5.0 0.00 0.02 0.00 72 1006.0
20260504231845 54 341 3.0 5.0 0.00 0.02 0.00 71 1005.9
20260504230346 55 349 4.0 6.0 0.00 0.04 0.00 69 1005.6
20260504224912 55 344 5.0 11.0 0.00 0.04 0.00 68 1005.3
20260504223352 55 325 5.0 12.0 0.00 0.04 0.00 67 1005.2
20260504221847 56 333 7.0 14.0 0.00 0.04 0.00 66 1005.1
20260504220355 57 315 8.0 16.0 0.00 0.07 0.00 64 1004.9
20260504214857 58 330 7.0 13.0 0.00 0.07 0.00 62 1004.7
20260504213336 58 323 6.0 16.0 0.00 0.07 0.00 61 1004.4
20260504211858 58 300 8.0 14.0 0.00 0.07 0.00 60 1004.2
20260504210343 57 275 6.0 17.0 0.00 0.10 0.00 61 1004.4
20260504204847 57 291 8.0 17.0 0.00 0.10 0.00 62 1004.2
20260504203349 57 291 9.0 20.0 0.00 0.10 0.00 61 1004.1
20260504201917 57 309 9.0 25.0 0.00 0.10 0.00 61 1004.3
20260504200336 58 294 12.0 23.0 0.00 0.12 0.00 60 1004.3
20260504194858 58 287 8.0 17.0 0.00 0.12 0.00 60 1004.2
20260504193336 57 265 14.0 24.0 0.00 0.12 0.00 60 1004.2
20260504191838 57 268 7.0 24.0 0.00 0.12 0.00 60 1004.3
20260504190358 55 306 7.0 15.0 0.00 0.19 0.00 65 1004.6
20260504184901 54 319 9.0 15.0 0.00 0.19 0.00 65 1004.7
20260504183344 55 311 7.0 19.0 0.00 0.19 0.00 61 1004.5
20260504181846 55 290 10.0 17.0 0.00 0.19 0.00 59 1004.5
20260504180348 56 235 6.0 13.0 0.00 0.33 0.00 52 1004.5
20260504174849 57 225 8.0 18.0 0.00 0.33 0.00 49 1003.7
20260504173354 58 268 9.0 14.0 0.00 0.33 0.00 47 1003.6
20260504171855 59 216 8.0 19.0 0.00 0.33 0.00 44 1003.6
20260504170354 59 211 8.0 24.0 0.00 0.40 0.00 45 1003.7
20260504160344 58 246 5.0 21.0 0.00 0.43 0.00 48 1004.4
20260504150355 55 304 10.0 16.0 0.00 0.46 0.00 52 1005.4
20260504140352 51 341 10.0 22.0 0.00 0.50 0.00 54 1005.8
20260504130343 48 304 10.0 17.0 0.00 0.56 0.00 58 1006.3
20260504110401 39 271 6.0 14.0 0.00 0.65 0.61 77 1005.8
20260504100350 37 294 5.0 10.0 0.00 0.67 0.61 77 1004.8
20260504081910 37 293 6.0 20.0 0.00 0.73 0.61 72 1003.4
20260504080349 37 303 9.0 15.0 0.00 0.78 0.61 70 1003.4
20260504070346 38 351 7.0 14.0 0.00 0.82 0.61 64 1002.9